Location: *
(60.1759°S, 155.0663°W)
Time: 21:43:27
(UTC+00:00)

RESURS DK-1 - Pass Details

Date: 17 September 2019
Orbit: 558 x 561 km, 69.9° (Epoch: 18 October)

Event Time Altitude Azimuth Distance (km) Brightness Sun altitude
Exits shadow 12:11:40 43° 134° (SE) 810 3.5 -27.9°
Drops below altitude 10° 12:14:36 10° 137° (SE) 1,893 6.0 -27.7°
Sets 12:16:50 0° 137° (SE) 2,795 7.2 -27.5°
